Weather in Krasnokamensk

Russia / Krasnoyarsk Krai     54°20′22″N   93°15′18″E
temp.,
°C
wind,
m/s
gust,
m/s
humid.,
%
clouds,
%
prec.,
mm/h
press.,
hPa
HPBL,
m
19 january, tue
tue1901:00−7ssw1395100 0.1 100986
04:00−8sw21094100 1.3 1010777
07:00−11sw1291100 1.4 101321
10:00−11sw1296100 0.1 101475
13:00−10w3785100 0.4 1016734
16:00−12wsw1195100 0.1 101629
19:00−15ssw1197100 0.2 101820
22:00−18s1296100 0.0 101820
20 january, wed
wed2001:00−21sse129797 0.0 102020
04:00−22se119974 0.0 102220
07:00−22wnw119685 0.0 102620
10:00−23n229329 0.0 103036
13:00−18ene128015 0.0 1030379
16:00−19ne11893 0.0 103020
19:00−23ne12881 0.0 103320
22:00−24ne12890 0.0 103320
21 january, thu
thu2101:00−25ne12910 0.0 103320
04:00−24ene229348 0.0 103120
07:00−22ene129174 0.0 102923
10:00−19e1188100 0.0 102679
13:00−15ese1295100 0.6 1023212
16:00−14ese1195100 1.4 1021165
19:00−14e1197100 1.7 102122
22:00−13e1197100 0.1 102020
22 january, fri
fri2201:00−11ene1197100 0.3 101765
04:00−11e1197100 0.1 101422
07:00−10e1297100 0.8 101079
10:00−9e1296100 0.8 1008106
13:00−7ese1295100 1.5 1004191
16:00−7sw2396100 3.3 1005261
19:00−9wsw1197100 4.8 100921
22:00−10w1197100 0.1 101221
23 january, sat
sat2301:00−13nnw1196100 0.1 101321
04:00−12nnw1193100 0.0 101521
07:00−12w1194100 0.1 101720
10:00−14wsw1194100 0.0 102122
13:00−11wsw1282100 0.0 1022609
16:00−12ssw1296100 0.2 102391
19:00−16sse2294100 0.3 102522
22:00−15sse1197100 0.3 102526